EHI
2 1 0 0 0 0 0 0 0 0 0 0 0 0 0 0 0 0 0 0 0 0 0 0 0 0 0 0 0 0 0 0 0 0 0 0 0 0 0 0 0 0 0
2 1 0 0 0 0 0 0 0 0 0 0 0 0 0 0 0 0 0 0 0 0 0 0 0 0 0 0 0 0 0 0 0 0 0 0 0 0 0 0 0 0 0
1 0 0 0 0 0 0 0 0 0 0 0 0 0 0 0 0 0 0 0 0 0 0 0 0 0 0 0 0 0 0 0 0 0 0 0 0 0 0 0 0 0 0
0 0 1 0 0 0 0 0 0 0 0 0 0 0 0 0 0 0 0 0 0 0 0 0 0 0 0 0 0 0 0 0 0 0 0 0 0 0 0 0 0 0 0
0 0 0 0 0 0 0 0 0 0 0 0 0 0 0 0 0 0 0 0 0 0 0 0 0 0 0 0 0 0 0 0 0 0 0 0 0 0 0 0 0 0 0
0 0 0 0 0 0 0 0 0 0 0 0 0 0 0 0 0 0 0 0 0 0 0 0 0 0 0 0 0 0 0 0 0 0 0 0 0 0 0 0 0 0 0
0 0 0 0 0 0 0 0 0 0 0 0 0 0 0 0 0 0 0 0 0 0 0 0 0 0 0 0 0 0 0 0 0 0 0 0 0 0 0 0 0 0 0
0 0 0 0 0 0 0 0 0 0 0 0 0 0 0 0 0 0 0 0 0 0 0 0 0 0 0 0 0 0 0 0 0 0 0 0 0 0 0 0 0 0 0
0 0 0 0 0 0 0 0 0 0 0 0 0 0 0 0 0 0 0 0 0 0 0 0 0 0 0 0 0 0 0 0 0 0 0 0 0 0 0 0 0 0 0
0 0 0 0 0 0 0 0 0 0 0 0 0 0 0 0 0 0 0 0 0 0 0 0 0 0 0 0 0 0 0 0 0 0 0 0 0 0 0 0 0 0 0
0 0 0 0 0 0 0 0 0 0 0 0 0 0 0 0 0 0 0 0 0 0 0 0 0 0 0 0 0 0 0 0 0 0 0 0 0 0 0 0 0 0 0
0 0 0 0 0 0 0 0 0 0 0 0 0 0 0 0 0 0 0 0 0 0 0 0 0 0 0 0 0 0 0 0 0 0 0 0 0 0 0 0 0 0 0
0 0 0 0 0 0 0 0 0 0 0 0 0 0 0 0 0 0 0 0 0 0 0 0 0 0 0 0 0 0 0 0 0 0 0 0 0 0 0 0 0 0 0
0 0 0 0 0 0 0 0 0 0 0 0 0 0 0 0 0 0 0 0 0 0 0 0 0 0 0 0 0 0 0 0 0 0 0 0 0 0 0 0 0 0 0
0 0 0 0 0 0 0 0 0 0 0 0 0 0 0 0 0 0 0 0 0 0 0 0 0 0 0 0 0 0 0 0 0 0 0 0 0 0 0 0 0 0 0
0 0 0 0 0 0 0 0 0 0 0 0 0 0 0 0 0 0 0 0 0 0 0 0 0 0 0 0 0 0 0 0 0 0 0 0 0 0 0 0 0 0 0
0 0 0 0 0 0 0 0 0 0 0 0 0 0 0 0 0 0 0 0 0 0 0 0 0 0 0 0 0 0 0 0 0 0 0 0 0 0 0 0 0 0 0
0 0 0 0 0 0 0 0 0 0 0 0 0 0 0 0 0 0 0 0 0 0 0 0 0 0 0 0 0 0 0 0 0 0 0 0 0 0 0 0 0 0 0
0 0 0 0 0 0 0 0 0 0 0 0 0 0 0 0 0 0 0 0 0 0 0 0 0 0 0 0 0 0 0 0 0 0 0 0 0 0 0 0 0 0 0
0 0 0 0 0 0 0 0 0 0 0 0 0 0 0 0 0 0 0 0 0 0 0 0 0 0 0 0 0 0 0 0 0 0 0 0 0 0 0 0 0 0 0
0 0 0 0 0 0 0 0 0 0 0 0 0 0 0 0 0 0 0 0 0 0 0 0 0 0 0 0 0 0 0 0 0 0 0 0 0 0 0 0 0 0 0
0 0 0 0 0 0 0 0 0 0 0 0 0 0 0 0 0 0 0 0 0 0 0 0 0 0 0 0 0 0 0 0 0 0 0 0 0 0 0 0 0 0 0
0 0 0 0 0 0 0 0 0 0 0 0 0 0 0 0 0 0 0 0 0 0 0 0 0 0 0 0 0 0 0 0 0 0 0 0 0 0 0 0 0 0 0
0 0 0 0 0 0 0 0 0 0 0 0 0 0 0 0 0 0 0 0 0 0 0 0 0 0 0 0 0 0 0 0 0 0 0 0 0 0 0 0 0 0 0
0 0 0 0 0 0 0 0 0 0 0 0 0 0 0 0 0 0 0 0 0 0 0 0 0 0 0 0 0 0 0 0 0 0 0 0 0 0 0 0 0 0 0
0 0 0 0 0 0 0 0 0 0 0 0 0 0 0 0 0 0 0 0 0 0 0 0 0 0 0 0 0 0 0 0 0 0 0 0 0 0 0 0 0 0 0
Wind_Speed
1 1 0 1 1 1 1 1 1 2 2 2 2 2 3 3 2 2 2 2 1 3 5 6 6 6 6 7 7 7 7 7 7 7 7 7 6 6 7 7 7 7 7
1 1 1 1 1 1 1 2 2 1 2 2 2 2 2 3 2 2 2 3 2 2 3 5 6 6 6 7 7 7 7 6 6 6 6 6 6 6 6 6 6 6 6
1 1 1 1 1 1 2 2 2 1 1 1 2 2 2 3 3 3 2 2 3 3 2 3 5 5 6 7 7 7 7 6 6 6 6 6 6 5 5 6 6 6 5
1 1 1 1 1 1 1 2 2 2 1 1 1 1 2 2 3 3 3 2 2 2 3 2 3 4 5 6 7 7 7 6 6 6 6 6 5 5 5 5 6 6 5
2 1 1 1 1 1 1 2 2 2 2 1 1 2 2 2 3 3 4 3 3 2 3 2 2 2 3 5 7 7 7 6 6 6 6 6 5 5 6 5 5 6 5
2 2 1 1 1 1 1 1 2 2 2 2 1 2 2 2 3 3 4 3 3 3 3 3 3 3 2 3 5 7 7 8 7 6 6 6 6 6 6 5 5 5 5
2 2 2 2 2 1 2 1 1 2 2 2 1 2 2 3 4 3 3 4 4 4 4 4 3 3 3 4 5 6 7 8 8 7 7 7 7 6 6 6 5 4 5
2 2 2 2 2 2 2 2 2 2 2 2 2 2 2 3 3 3 4 4 4 4 4 5 4 4 3 3 3 5 6 7 8 9 7 7 7 7 7 6 5 5 5
3 3 3 3 3 3 3 3 3 3 3 3 3 3 3 3 1 3 4 4 4 4 4 4 5 4 4 3 3 4 5 6 7 8 8 7 6 7 7 7 6 5 5
4 4 4 4 4 3 4 4 4 4 4 4 3 3 3 2 3 2 3 4 4 5 5 4 4 5 5 4 3 3 4 6 7 8 8 8 8 8 8 7 7 7 6
4 4 4 4 4 4 4 4 4 4 4 5 4 3 3 3 4 3 3 3 3 3 3 4 3 3 4 4 4 4 4 6 8 8 9 9 8 8 8 7 7 7 7
3 4 5 4 5 4 4 5 5 6 5 6 4 4 4 4 4 4 4 4 4 3 4 3 3 3 3 4 4 3 4 5 7 8 8 8 8 8 7 7 7 7 7
3 4 4 5 5 5 5 5 6 6 6 7 6 5 5 5 4 4 4 3 4 3 3 4 4 4 3 3 3 4 4 5 6 7 7 7 6 6 6 6 6 6 6
4 5 5 5 6 6 5 5 5 6 5 6 7 6 5 5 4 4 4 4 4 4 4 4 3 4 3 3 2 3 4 6 6 6 6 6 5 4 4 5 4 5 5
5 6 6 6 6 6 6 5 5 6 6 6 7 7 6 5 5 5 5 5 5 5 5 4 4 4 3 3 2 3 3 4 5 6 6 5 4 4 4 4 4 4 4
6 6 6 6 6 6 6 6 6 6 7 6 6 7 6 5 5 5 5 5 6 6 5 3 3 3 3 2 3 4 4 4 5 6 6 5 5 5 5 5 5 5 5
6 6 6 6 7 7 7 7 7 7 8 7 7 8 8 7 6 5 5 5 6 5 6 4 3 4 5 4 3 3 4 4 4 6 7 6 6 6 6 5 5 5 5
6 7 7 7 7 7 7 8 8 8 9 9 9 9 9 7 8 7 6 7 6 6 6 6 5 4 6 5 4 4 3 3 4 4 7 7 6 6 6 6 6 5 5
7 7 7 7 8 8 8 8 9 9 9 9 9 10 9 9 10 8 8 7 6 6 6 6 5 4 4 4 4 4 4 4 4 4 6 8 7 7 7 6 6 6 5
7 7 8 8 8 8 9 9 9 9 9 9 9 10 10 10 11 10 8 8 7 7 7 6 5 5 4 4 4 4 4 4 4 4 5 6 7 8 8 8 7 7 6
7 7 8 8 8 8 8 9 9 9 9 10 9 10 10 11 12 10 8 8 8 7 7 6 6 5 5 5 5 4 5 4 4 4 4 5 5 5 6 8 8 8 8
7 7 8 8 9 8 9 11 11 10 10 10 10 10 10 11 12 13 13 13 11 10 9 8 7 8 8 7 5 5 5 5 4 3 4 5 5 6 5 5 7 8 8
7 8 8 8 9 10 11 12 12 11 10 10 10 10 8 8 11 10 11 13 13 14 13 10 10 10 9 8 7 7 7 6 5 3 4 5 5 6 5 5 8 9 9
7 8 8 9 9 10 11 11 11 11 10 11 11 11 10 10 10 10 10 10 11 11 11 10 10 9 8 7 7 7 7 5 4 3 4 5 4 5 4 5 8 9 9
7 8 8 8 9 10 10 11 11 8 8 10 10 10 11 11 12 12 11 10 10 9 9 10 10 9 9 9 8 5 5 5 4 4 3 4 3 3 4 5 5 8 9
8 8 8 8 9 10 10 10 11 7 8 8 8 9 12 12 12 13 11 10 11 9 8 7 8 8 8 9 10 9 7 6 4 4 4 4 3 2 3 3 3 4 6
Wind_Direction
333 320 283 257 239 205 189 187 214 204 202 198 205 190 176 174 174 168 139 113 148 146 155 154 155 157 155 151 142 142 138 133 129 123 123 124 115 123 124 118 111 106 103
307 274 219 244 253 244 216 206 202 222 220 208 205 204 196 182 182 181 173 154 136 158 157 165 167 167 164 161 155 148 145 141 141 136 133 130 130 119 130 131 124 115 107
298 290 240 230 249 265 238 207 190 204 215 208 207 208 208 201 193 190 189 192 174 163 166 172 169 171 173 171 169 161 155 153 151 153 151 144 136 136 129 141 138 128 119
305 290 266 245 262 247 243 212 198 194 201 213 204 206 208 203 201 200 196 195 198 189 168 160 176 177 182 182 177 172 167 165 163 162 160 157 152 149 150 143 150 144 137
300 285 273 253 242 228 242 230 212 206 200 209 213 214 216 210 212 210 205 202 206 206 192 163 187 190 190 193 188 185 181 175 175 174 170 166 162 162 159 156 156 162 160
293 285 269 249 231 223 230 237 218 218 206 195 212 223 216 214 225 216 213 205 206 209 208 200 196 189 199 201 199 193 191 189 184 183 184 180 176 176 176 173 170 172 175
281 280 268 246 230 220 225 224 219 201 198 194 194 203 216 215 214 220 218 210 208 210 210 208 212 207 197 202 211 205 195 195 196 191 193 193 192 192 191 192 190 187 191
263 269 264 254 239 226 217 213 217 211 210 209 202 192 202 213 207 221 215 215 218 210 211 213 212 214 206 205 203 209 204 199 198 197 195 197 198 200 199 199 197 198 198
251 254 253 253 247 232 220 223 223 224 216 219 218 216 208 214 220 210 216 218 218 214 211 215 213 215 212 207 204 201 209 204 200 198 199 198 201 207 206 206 208 211 214
251 248 250 250 245 239 228 224 226 236 221 216 218 239 248 231 218 209 215 219 222 221 214 215 215 218 222 211 209 209 205 205 207 210 211 212 211 215 215 215 216 218 219
253 249 248 249 246 243 238 232 231 234 230 222 217 220 226 225 238 226 220 220 224 228 223 223 223 222 223 221 216 211 201 207 210 213 216 218 218 221 224 223 223 225 225
268 257 246 247 245 243 243 237 234 231 235 230 222 223 220 213 218 228 225 219 227 226 226 231 229 228 227 221 219 214 199 206 215 218 220 223 224 226 229 231 232 232 233
270 269 262 251 248 244 243 244 237 231 233 228 224 227 231 229 227 235 231 226 237 234 226 229 227 230 229 225 221 212 199 204 210 215 218 222 224 226 229 234 238 238 238
264 268 262 259 259 252 244 241 240 236 234 231 228 229 233 232 231 227 226 224 230 230 222 224 220 228 226 225 229 216 206 199 205 208 217 223 220 219 225 232 241 245 242
261 259 262 260 259 258 248 242 239 235 232 232 228 227 231 233 230 234 230 227 229 232 225 217 213 214 222 225 219 218 224 198 202 206 215 220 219 216 220 230 240 252 248
257 257 257 259 258 258 254 242 240 237 232 235 232 225 230 234 230 229 229 235 237 242 240 221 223 214 212 227 222 222 225 208 206 210 213 215 217 215 216 224 234 242 247
255 256 258 259 257 255 254 247 239 236 233 236 232 228 230 232 230 225 227 231 234 237 237 235 231 223 220 220 220 230 232 227 219 210 210 213 219 222 221 224 231 238 242
258 256 257 257 257 255 252 250 245 239 233 234 231 229 230 229 228 227 224 228 228 232 232 229 225 222 226 222 223 228 239 235 230 214 217 217 220 227 224 224 230 234 238
260 258 257 255 255 254 251 251 249 246 238 236 231 229 227 226 228 225 225 229 229 230 228 220 224 225 227 218 224 234 239 244 238 233 226 223 222 225 225 227 232 235 238
258 257 257 256 255 254 251 251 252 251 247 242 236 232 229 227 228 224 224 225 227 227 220 215 216 217 221 219 221 226 234 240 240 237 235 230 229 227 229 230 230 233 237
261 260 259 258 256 254 249 249 253 254 252 247 239 235 233 231 232 227 223 221 221 224 216 213 215 218 216 208 217 223 232 238 240 228 234 230 228 228 227 230 228 228 231
263 262 258 257 256 254 254 257 258 254 255 247 239 237 234 230 230 228 229 226 224 223 217 214 219 219 222 221 220 218 224 230 237 217 233 236 225 229 230 230 229 227 229
265 261 259 257 257 257 257 258 261 260 257 249 240 236 233 230 227 225 226 228 230 231 228 223 221 224 222 217 216 220 224 230 240 225 232 240 225 232 233 234 224 225 229
267 261 259 258 260 259 260 261 264 258 258 253 243 237 235 233 226 224 225 227 230 230 228 228 229 230 229 221 218 225 226 237 249 230 230 243 235 241 241 235 220 222 231
269 265 262 259 260 262 260 264 265 258 255 255 248 240 235 234 227 224 226 227 230 231 230 228 233 233 228 224 216 213 214 220 238 231 219 237 242 256 250 238 226 223 231
267 268 264 261 259 261 261 262 262 255 256 256 250 241 235 234 227 221 222 221 225 227 220 215 219 221 222 219 216 217 215 219 227 231 206 216 227 232 253 238 233 234 233